Flag for U.S.A. Weather past 2 weeks in Simi Valley, California, U.S.A.

Now
92 °F

Sunny.


Feels Like: 88 °F
Forecast: 64 / 90 °F
Wind: 10 mph from Northwest

Location: Van Nuys Airport

Current Time: Jul 28, 2014 at 6:19:11 PM

Latest Report: Jul 28, 2014 at 5:51 PM


Visibility: 10 mi

Pressure: 29.93 "Hg

Humidity: 19%

Dew point: 44 °F

Location of Simi ValleyLocation

Historic Weather in Simi Valley — Graph

°F

Simi Valley temperature yesterday

Maximum temperature yesterday: 94 °F (at 4:51 PM)
Minimum temperature yesterday: 72 °F (at 5:51 AM)
Average temperature yesterday: 81 °F

Past Weeks' High & Low Weather Summary

 TemperatureHumidityPressure
High102 °F (Jul 24, 3:51 PM)84% (Jul 17, 3:51 AM)30.05 "Hg (Jul 17, 3:51 AM)
Low62 °F (Jul 18, 4:51 AM)7% (Jul 24, 12:51 PM)29.70 "Hg (Jul 24, 5:51 PM)
Average76 °F55%29.94 "Hg
* Reported Jul 13 4:51 PM — Jul 28 4:51 PM, Simi Valley, Weather by CustomWeather, © 2014

Note: Actual official high and low records may vary slightly from our data, if they occured in-between our weather recording intervals... More about our weather records

Advertising

Simi Valley weather history for previous 24 hours

 ConditionsComfort  
Time TempWeatherWind HumidityBarometerVisibility
4:51 PM
Jul 28
92 °FSunny.6 mph21%29.95 "Hg10 mi
3:51 PM92 °FSunny.12 mph21%29.97 "Hg10 mi
2:51 PM92 °FSunny.8 mph20%29.98 "Hg10 mi
1:51 PM93 °FSunny.13 mph26%29.99 "Hg10 mi
12:51 PM93 °FPassing clouds.No wind16%30.01 "Hg10 mi
11:51 AM87 °FSunny.No wind23%30.03 "Hg10 mi
10:51 AM82 °FSunny.No wind37%30.04 "Hg10 mi
9:51 AM78 °FSunny.6 mph42%30.04 "Hg10 mi
8:51 AM77 °FSunny.No wind47%30.04 "Hg10 mi
7:51 AM74 °FPassing clouds.No wind53%30.03 "Hg10 mi
6:51 AM72 °FPassing clouds.No wind64%30.03 "Hg10 mi
5:51 AM71 °FPassing clouds.3 mph66%30.01 "Hg10 mi
4:51 AM72 °FPassing clouds.3 mph61%30.01 "Hg10 mi
3:51 AM71 °FClear.3 mph61%30.01 "Hg10 mi
2:51 AM71 °FClear.No wind61%30.00 "Hg10 mi
1:51 AM71 °FClear.3 mph66%29.99 "Hg10 mi
12:51 AM70 °FClear.7 mph73%29.98 "Hg10 mi
11:51 PM
Jul 27
77 °FClear.9 mph52%29.96 "Hg10 mi
10:51 PM82 °FClear.No wind25%29.94 "Hg10 mi
9:51 PM83 °FClear.No wind33%29.92 "Hg10 mi
8:51 PM84 °FSunny.No wind26%29.91 "Hg10 mi
7:51 PM87 °FSunny.No wind28%29.90 "Hg10 mi
6:51 PM90 °FSunny.7 mph24%29.89 "Hg10 mi
Weather by CustomWeather, © 2014

See weather overviewHow to use our weather pages